Wind_Speed
39 40 40 41 41 41 42 41 41 42 41 41 41 41 42 42 42 41 40 40 40 40 40 39 39 39 39 39 38 37 37 36 36 35 35 34 34 34
39 40 40 40 41 41 42 41 41 41 40 39 39 40 40 40 40 39 39 39 39 39 39 39 39 39 39 38 38 37 37 36 36 35 35 34 34 33
37 38 39 39 40 40 40 40 40 39 38 37 38 38 39 39 39 38 38 37 37 37 38 38 38 38 38 38 38 38 38 37 36 36 35 34 34 34
36 36 37 38 39 38 38 38 38 38 38 37 36 36 37 38 38 37 35 35 36 36 37 38 38 37 37 38 38 38 38 38 37 37 36 35 35 34
36 36 35 35 35 36 37 37 37 37 37 36 35 36 36 36 36 35 35 35 35 35 36 36 37 37 37 37 38 39 38 38 38 38 37 37 36 35
34 34 34 33 33 34 34 34 35 35 34 34 34 35 35 34 34 34 34 34 34 34 35 35 36 37 37 37 37 38 39 39 39 38 38 37 37 36
33 32 32 32 32 32 32 32 33 33 32 32 33 34 33 33 33 33 34 34 33 33 34 34 35 35 35 35 36 37 38 38 38 38 38 37 37 36
31 31 31 30 31 31 31 31 31 31 31 32 32 32 32 31 32 32 33 33 32 33 33 33 34 33 34 35 35 36 37 36 36 36 35 36 37 37
31 31 30 29 30 30 30 30 30 30 31 31 30 30 30 30 31 32 32 32 32 32 32 32 33 33 33 34 35 35 35 34 33 33 33 34 34 35
32 31 30 29 29 29 30 30 30 31 31 30 30 30 30 30 31 32 32 32 32 32 33 33 33 33 33 33 33 32 33 32 32 31 32 32 33 33
31 30 30 30 30 30 31 31 31 31 31 30 30 29 28 29 30 31 31 31 31 32 33 33 33 33 32 31 31 30 31 31 31 32 32 32 32 32
30 30 30 30 30 30 30 30 30 30 30 29 28 27 27 27 28 29 29 30 30 30 31 32 31 31 30 29 29 29 30 30 31 31 31 31 30 30
30 30 30 29 29 28 28 29 29 29 28 27 26 25 25 25 26 26 27 28 29 29 29 29 29 28 27 27 28 29 29 30 30 30 30 30 31 30
28 29 28 28 28 28 28 27 27 27 26 25 24 24 24 24 25 26 27 27 27 27 26 26 26 26 26 26 27 27 28 28 29 29 30 30 30 29
27 27 27 26 26 26 26 26 26 25 24 24 24 24 24 24 25 26 25 25 24 24 23 23 24 24 25 26 26 26 26 27 27 28 28 28 27 27
27 26 26 26 25 24 25 25 25 25 24 24 24 24 24 24 24 23 23 23 23 22 22 22 22 22 23 25 26 26 26 25 25 26 26 25 24 24
26 26 26 26 25 24 24 24 24 23 22 22 23 23 22 22 22 22 21 21 21 21 21 21 22 22 22 23 24 24 25 25 24 24 23 22 22 22
25 25 25 25 24 24 23 23 23 22 22 23 23 22 21 21 22 22 21 21 21 20 21 21 22 22 22 22 23 23 24 24 23 22 21 21 21 21
23 24 24 24 23 24 23 22 22 22 22 22 22 22 21 21 21 21 21 20 20 19 19 20 20 20 20 20 21 22 22 22 21 21 20 20 20 20
22 22 22 22 22 22 21 21 21 22 22 23 22 22 21 21 20 21 21 21 20 19 19 19 19 20 20 20 19 20 21 20 20 20 20 19 18 18
19 19 20 20 20 20 20 20 20 21 21 21 21 20 21 21 20 20 20 20 19 19 19 18 18 18 19 18 17 17 18 17 17 18 17 16 15 15
19 19 19 19 19 19 19 19 19 19 19 20 20 20 20 19 19 19 19 18 18 18 18 18 17 18 18 18 17 16 15 15 14 14 14 13 14 14
17 18 18 18 18 18 18 18 18 19 19 19 19 19 19 18 17 17 18 18 17 17 17 17 17 17 17 16 15 15 14 13 12 11 11 11 12 12
Wind_Direction
270 270 271 271 271 271 271 272 273 273 272 273 273 272 272 272 272 272 270 270 271 270 268 268 267 266 265 265 265 266 267 267 267 267 269 270 270 270
271 271 271 271 272 271 271 272 273 274 272 272 273 272 272 273 272 272 271 270 270 268 267 267 267 267 265 265 265 265 266 267 266 267 268 270 270 270
272 272 271 272 272 272 273 273 273 274 273 273 272 272 273 273 273 273 271 270 270 268 267 266 267 267 265 265 265 266 265 266 266 266 268 269 270 271
272 273 273 273 273 273 273 273 272 273 274 273 273 273 273 273 273 273 272 270 270 269 268 267 267 266 264 264 264 265 265 265 266 267 268 269 270 270
273 274 274 274 274 273 272 271 271 273 275 274 272 273 273 274 272 272 271 271 270 270 269 268 266 265 264 264 263 264 264 264 266 267 267 268 269 269
273 273 273 274 274 273 271 270 272 274 275 274 272 272 272 272 270 271 271 271 270 270 270 268 266 266 265 264 263 263 264 264 265 266 266 266 266 266
274 273 273 273 272 271 271 272 273 274 275 274 272 272 270 270 271 271 270 269 269 269 269 268 267 267 266 265 265 265 265 265 265 265 264 265 266 266
273 273 273 272 271 271 272 272 273 275 277 274 274 271 269 271 272 271 271 269 268 267 267 268 268 267 266 267 267 268 268 268 267 265 264 265 266 265
271 272 272 271 272 271 270 272 274 277 278 276 275 271 271 271 271 271 271 270 270 268 268 268 268 267 267 268 269 270 269 267 266 266 266 266 266 266
270 271 270 270 271 272 272 273 275 277 279 279 276 273 272 271 272 271 271 270 271 271 270 268 268 268 268 269 268 268 268 268 267 267 266 267 268 267
269 268 269 270 271 274 274 273 275 278 279 277 275 275 274 274 274 273 272 271 270 270 270 270 269 268 267 267 265 265 267 268 269 268 267 267 268 269
268 269 270 272 273 275 275 274 276 279 279 277 275 276 278 278 277 276 275 273 272 272 271 271 270 269 266 264 263 266 267 268 269 269 268 269 269 270
269 270 271 273 272 273 274 275 276 278 279 275 274 277 279 280 280 279 279 277 274 274 273 271 269 267 265 262 263 266 268 269 270 271 271 271 271 269
268 269 270 272 273 273 275 275 277 279 277 274 275 277 280 280 280 280 280 279 277 276 273 271 269 265 265 265 265 267 270 272 273 273 273 273 271 269
268 267 268 270 270 271 273 275 277 279 276 274 275 277 278 280 280 281 280 279 278 276 275 274 271 268 267 267 267 268 270 273 274 275 275 274 272 269
266 265 267 268 269 272 275 276 277 279 277 273 274 276 277 278 280 280 279 278 277 276 277 275 273 271 271 271 270 270 270 274 275 276 277 275 271 269
264 265 266 267 270 273 276 277 278 279 276 273 274 275 274 276 276 277 279 279 278 277 275 276 275 274 275 276 274 274 273 276 276 274 273 273 271 268
263 263 264 266 269 271 273 274 276 278 275 272 272 273 272 273 275 276 276 278 279 277 275 275 274 275 276 278 280 280 278 276 275 273 272 273 271 268
263 263 264 265 268 269 270 273 276 276 273 271 271 272 272 272 274 274 276 278 277 277 279 279 278 277 277 279 282 283 281 276 274 271 271 271 267 265
262 262 262 263 265 267 269 272 275 276 272 270 270 271 270 271 273 274 274 275 276 278 279 281 281 281 281 283 283 281 281 279 275 271 269 268 264 261
260 261 260 261 264 267 269 271 274 276 273 270 269 269 270 272 274 274 274 275 277 278 279 281 282 283 283 282 283 284 282 281 277 273 268 265 261 259
259 259 260 261 264 266 268 270 274 277 276 272 269 270 273 274 273 273 272 274 275 278 280 278 279 282 283 281 280 282 282 280 278 275 271 265 261 260
261 260 259 259 262 264 267 271 275 278 278 274 270 270 271 271 273 273 272 272 273 276 278 277 276 278 281 281 279 276 275 273 271 271 271 270 266 263
Height
5614 5614 5614 5614 5613 5613 5614 5614 5615 5616 5617 5616 5615 5614 5614 5614 5613 5613 5613 5613 5614 5615 5616 5617 5618 5619 5620 5622 5623 5624 5624 5625 5625 5625 5625 5625 5625 5625
5604 5604 5603 5603 5603 5602 5603 5603 5603 5604 5605 5605 5604 5603 5602 5602 5601 5601 5602 5602 5603 5604 5605 5606 5607 5608 5609 5611 5612 5613 5614 5614 5615 5615 5616 5616 5616 5616
5594 5593 5593 5592 5592 5592 5592 5592 5592 5592 5593 5593 5592 5591 5591 5590 5590 5590 5590 5591 5592 5593 5594 5595 5596 5597 5599 5600 5601 5602 5603 5604 5605 5606 5606 5606 5607 5607
5584 5583 5583 5582 5582 5582 5581 5581 5581 5581 5581 5582 5581 5581 5580 5580 5580 5580 5580 5580 5581 5582 5583 5584 5585 5587 5588 5589 5590 5592 5593 5594 5595 5595 5596 5597 5597 5597
5575 5574 5573 5573 5572 5572 5572 5572 5572 5571 5570 5571 5571 5570 5570 5569 5569 5570 5570 5570 5571 5571 5572 5573 5574 5576 5577 5578 5579 5581 5582 5583 5584 5585 5586 5586 5587 5587
5565 5564 5564 5563 5563 5563 5562 5562 5562 5561 5561 5561 5561 5561 5560 5559 5560 5560 5560 5561 5561 5561 5561 5562 5564 5565 5566 5568 5569 5570 5571 5572 5573 5574 5575 5575 5576 5577
5556 5555 5555 5554 5554 5554 5553 5553 5553 5552 5552 5552 5551 5551 5551 5550 5551 5551 5551 5552 5552 5552 5552 5553 5554 5555 5556 5557 5558 5559 5560 5561 5562 5563 5564 5565 5566 5567
5548 5547 5546 5546 5545 5545 5544 5544 5544 5544 5544 5543 5542 5542 5542 5542 5542 5542 5542 5543 5544 5544 5544 5544 5544 5545 5546 5547 5547 5548 5549 5549 5550 5551 5552 5553 5555 5556
5539 5539 5538 5538 5537 5537 5537 5537 5536 5536 5535 5534 5533 5533 5533 5533 5533 5534 5534 5534 5534 5534 5534 5536 5535 5536 5536 5536 5537 5538 5538 5539 5540 5541 5542 5543 5544 5545
5531 5530 5530 5530 5530 5529 5529 5529 5528 5528 5527 5526 5525 5525 5525 5524 5525 5525 5525 5525 5526 5525 5525 5526 5527 5527 5527 5527 5527 5528 5528 5529 5530 5531 5532 5533 5534 5535
5522 5522 5522 5522 5522 5521 5521 5521 5521 5520 5518 5518 5517 5516 5516 5516 5516 5516 5516 5516 5517 5517 5516 5516 5517 5517 5518 5518 5518 5518 5519 5520 5521 5522 5522 5523 5524 5525
5514 5514 5514 5514 5514 5513 5513 5513 5513 5513 5511 5510 5509 5509 5508 5508 5508 5508 5508 5508 5508 5508 5507 5507 5507 5507 5509 5510 5510 5510 5510 5511 5512 5513 5513 5514 5515 5516
5506 5506 5506 5506 5506 5506 5506 5506 5506 5505 5503 5502 5502 5502 5501 5501 5501 5500 5499 5499 5499 5499 5498 5498 5498 5498 5499 5501 5502 5502 5502 5502 5503 5504 5505 5505 5506 5507
5498 5498 5498 5498 5498 5498 5498 5498 5497 5496 5496 5495 5495 5495 5495 5495 5494 5493 5491 5490 5490 5490 5490 5489 5490 5491 5491 5492 5494 5494 5494 5494 5494 5495 5495 5496 5496 5497
5490 5490 5491 5491 5491 5491 5491 5490 5490 5489 5489 5489 5489 5489 5488 5487 5486 5485 5484 5483 5483 5482 5482 5482 5482 5483 5484 5485 5485 5486 5486 5486 5486 5486 5486 5486 5487 5488
5482 5482 5483 5484 5484 5484 5484 5483 5483 5482 5482 5482 5482 5481 5481 5480 5480 5479 5478 5477 5477 5476 5476 5475 5475 5476 5476 5477 5477 5478 5478 5478 5478 5477 5477 5478 5478 5479
5474 5475 5475 5476 5477 5477 5477 5476 5476 5475 5475 5475 5475 5474 5474 5474 5473 5472 5472 5471 5471 5471 5470 5469 5469 5469 5469 5470 5470 5470 5470 5470 5470 5469 5469 5470 5470 5471
5466 5467 5468 5469 5470 5470 5470 5469 5469 5468 5468 5468 5468 5468 5468 5467 5467 5466 5466 5465 5465 5464 5464 5464 5463 5463 5463 5463 5463 5463 5463 5463 5462 5462 5462 5462 5463 5463
5458 5460 5461 5462 5463 5463 5463 5463 5462 5462 5461 5461 5461 5461 5461 5461 5461 5460 5460 5459 5459 5458 5458 5457 5457 5456 5457 5458 5457 5455 5455 5455 5455 5455 5455 5455 5456 5456
5452 5453 5454 5455 5456 5456 5456 5456 5456 5456 5455 5455 5455 5455 5455 5454 5454 5454 5454 5453 5453 5453 5452 5451 5451 5450 5450 5450 5450 5450 5448 5448 5448 5448 5448 5449 5449 5450
5446 5447 5448 5449 5449 5450 5450 5450 5450 5450 5449 5449 5449 5449 5448 5448 5448 5448 5448 5447 5447 5447 5446 5446 5445 5444 5444 5444 5444 5444 5443 5442 5442 5442 5442 5443 5444 5444
5440 5441 5442 5443 5444 5444 5445 5445 5444 5444 5443 5443 5443 5443 5442 5442 5442 5442 5441 5441 5441 5441 5441 5440 5440 5439 5439 5439 5438 5439 5439 5438 5437 5437 5437 5438 5439 5440
5435 5436 5437 5438 5438 5438 5439 5439 5439 5438 5438 5437 5437 5437 5437 5436 5436 5436 5436 5436 5436 5435 5435 5435 5435 5434 5434 5433 5433 5434 5434 5434 5434 5434 5434 5434 5434 5435